YUNHAI-2 01F (43915 NORAD) Tracking and Keplerian Element Data

This shows tracking and keplerian element data for the satellite.

Feedback or suggestion? Click here.




ElementValue
Catalog43915
NameYUNHAI-2 01F
Epoch Orbit36271
Epoch Day354.21534251
Epoch Year2025
RAAN267.3063
Inclination50.0118
Eccentricity0.0007287
Argument of Perigee58.8563
Mean Anonmoly301.3066
Mean Motion14.28930983
Decay Rate2.4E-06
L11 43915U 18112G 25354.21534251 .00000240 00000+0 15801-3 0 9990
L22 43915 50.0118 267.3063 0007287 58.8563 301.3066 14.28930983362710



Live tracking and technical data element details for YUNHAI-2 01F (NORAD 43915). YUNHAI-2 01F can be tracked NOW for your location showing map with azimuth and elevation plus other details from your city location.







IsCatalogInMostPopularTable: catalog: 43915, numindb: 512
Update: records affected: 1



GetName: 43915 YUNHAI-2 01F

Hit Count: updated at: Wed, 15 Apr 2026 01:20:20 GMT